Location: Nianha
(10.8000°N, 4.6333°W)
Time: 04:30:54
(UTC+00:00)

Cosmos 773 Rocket - Pass Details

Date: 14 November 2019
Orbit: 745 x 777 km, 74.1° (Epoch: 22 January)

Event Time Altitude Azimuth Distance (km) Brightness Sun altitude
Exits shadow 05:12:01 15° 325° (NW) 1,966 5.7 -15.3°
Maximum altitude 05:16:00 43° 259° (W) 1,073 4.4 -14.4°
Drops below altitude 10° 05:20:58 10° 188° (S) 2,317 6.6 -13.2°
Sets 05:23:27 0° 181° (S) 3,242 7.4 -12.6°
